Погода в Курганинске

Россия / Краснодарский край     44°53′15″N   40°35′28″E
темп.,
°C
ветер,
м/с
пор.,
м/с
влажн.,
%
обл.,
%
осадки,
мм/ч
давл.,
гПа
погр.,
м
20 июня, вс
вс2000:00+22в817532 0.0 1010725
03:00+20в71562100 0.0 1010576
06:00+19вюв5107797 0.0 1011372
09:00+23ю23681 0.0 1011591
12:00+27ююз22602 0.0 10111045
15:00+29ю225755 0.0 10111329
18:00+26ююз2372100 0.0 101063
21:00+22вюв01825 0.0 101111
21 июня, пн
пн2100:00+21в22860 0.0 101011
03:00+20вюв36900 0.0 1010109
06:00+19в35830 0.0 1010118
09:00+25в34700 0.0 1010463
12:00+29в55580 0.0 1009933
15:00+30вюв455472 0.0 10091394
18:00+27св2273100 0.0 100827
21:00+24всв46820 0.0 100983
22 июня, вт
вт2200:00+22в512450 0.0 1009281
03:00+19в47530 0.0 1010118
06:00+18в37720 0.0 1010148
09:00+24вюв23705 0.0 1010495
12:00+29всв22620 0.0 1010983
15:00+31в33572 0.0 10091320
18:00+30в346568 0.0 1010509
21:00+26юв2273100 0.1 101024
23 июня, ср
ср2300:00+24сз3381100 0.1 101149
03:00+22ю228720 0.1 101133
06:00+21всв128137 0.0 101251
09:00+26с22604 0.0 1012495
12:00+29с334642 0.0 10121050
15:00+31с014314 0.0 10111396
18:00+30ююз225425 0.0 1011345
21:00+24юв225945 0.0 101211
24 июня, чт
чт2400:00+22юв12685 0.0 101211
03:00+20з33884 0.0 101356
06:00+21з23915 0.0 1014141
09:00+25сз447418 0.0 1014744
12:00+29с235695 0.0 10141639
15:00+30св444098 0.0 10141579
18:00+29зсз115172 0.0 1013706
21:00+23з11585 0.0 101411